#timestamp,LO_Frequency,Hit 
1504033215.8,286047002.0,N
1504033235.6,286047000.2,N
1504033255.5,286047004.3,N
1504033275.3,286047005.0,N
1504033295.1,286047005.5,N
1504033315.8,286047003.8,N
1504033335.7,286047003.6,N
1504033355.5,286047004.0,N
1504033375.3,286047005.5,N
1504033395.2,286047004.0,N
1504033415.9,286047006.1,N
1504033435.7,286047008.7,P
1504033455.6,286047002.9,N
1504033475.4,286047005.6,N
1504033495.2,286047005.0,N
1504033515.1,286047005.5,N
1504033516.0,286047005.5,N
1504033535.8,286047002.1,N
1504033555.6,286047002.4,N
1504033575.5,286047003.7,N
1504033595.3,286047002.0,N
1504033615.1,286047004.1,N
1504033635.9,286047004.5,N
1504033655.7,286047008.3,P
1504033675.5,286047003.7,N
1504033695.4,286047004.5,N
1504033715.2,286047001.5,N
1504033735.0,286047002.3,N
1504033735.9,286047002.3,N
1504033755.8,286047003.6,N
1504033775.6,286047007.5,P
1504033795.4,286047000.9,N
1504033815.3,286046996.8,N
1504033835.1,286046999.2,N
1504033836.0,286046999.2,N
1504033855.8,286046999.0,N
1504033875.7,286046999.0,N
1504033895.5,286047004.4,N
1504033915.3,286046998.8,N
1504033935.1,286046999.5,N
1504033955.9,286046999.9,N
1504033975.7,286046999.1,N
1504033995.5,286047000.7,N
1504034015.4,286047001.5,N
1504034035.2,286047001.6,N
1504034055.0,286046999.5,N
1504034055.9,286046999.5,N
1504034075.8,286046996.8,N
1504034095.6,286046999.4,N
1504034115.4,286046996.5,N
1504034135.3,286046998.6,N
1504034155.1,286046998.5,N
1504034156.0,286046998.5,N
1504034175.8,286046999.4,N
1504034195.7,286046996.6,N
1504034215.5,286046998.8,N
1504034235.3,286046997.8,N
1504034255.1,286046999.1,N
1504034275.9,286046998.4,N
1504034295.7,286047000.6,N
1504034315.5,286047001.3,N
1504034335.4,286047000.9,N
1504034355.2,286047005.9,P
1504034375.0,286047006.0,N
1504034375.9,286047006.0,N
1504034395.8,286047002.5,N
1504034415.6,286047000.4,N
1504034435.4,286047005.6,N
1504034455.3,286047006.0,N
1504034475.1,286047003.3,N
1504034495.8,286047002.9,N
1504034515.7,286047006.0,N
1504034535.5,286047003.6,N
1504034555.3,286047003.6,N
1504034575.2,286047006.0,N
1504034595.9,286047009.1,P
1504034615.7,286047001.3,N
1504034635.6,286047000.1,N
1504034655.4,286046999.5,N
1504034675.2,286046996.7,N
1504034695.1,286046996.9,N
1504034696.0,286046996.9,N
1504034715.8,286046998.9,N
1504034735.6,286047002.1,N
1504034755.5,286047001.6,N
1504034775.3,286047001.4,N
1504034795.1,286047002.6,N
1504034815.8,286047002.5,N
1504034835.7,286047003.6,N
1504034855.5,286047005.4,N
1504034875.3,286047003.5,N
1504034895.2,286047005.5,N
1504034915.9,286047003.5,N
1504034935.7,286047007.1,N
1504034955.6,286047007.5,N
1504034975.4,286047008.7,N
1504034995.2,286047006.8,N
1504035015.1,286047008.8,N
1504035016.0,286047008.8,N
1504035035.8,286047007.6,N
1504035055.6,286047005.0,N
1504035075.5,286047004.7,N
1504035095.3,286047004.8,N
1504035115.1,286047007.0,N
1504035135.8,286047007.1,N
1504035155.7,286047009.2,N
1504035175.5,286047007.5,N
1504035195.3,286047003.2,N
1504035215.2,286047007.2,N
1504035235.9,286047005.5,N
1504035255.7,286047004.6,N
1504035275.6,286047004.7,N
1504035295.4,286047007.0,N
1504035315.2,286047007.5,P
1504035335.1,286047000.5,N
1504035336.0,286047000.5,N
1504035355.8,286047000.0,N
1504035375.6,286047004.4,N
1504035395.5,286047001.5,N
1504035415.3,286047007.5,N
1504035435.1,286047002.1,N
1504035455.9,286047005.1,N
1504035475.7,286047006.7,N
1504035495.5,286047004.5,N
1504035515.4,286047005.3,N
1504035535.2,286047003.1,N
1504035555.0,286047004.4,N
1504035555.9,286047004.4,N
1504035575.7,286047002.9,N
1504035595.6,286047007.1,P
1504035615.4,286047004.4,N
1504035635.3,286047004.2,N
1504035655.1,286047004.2,P
1504035656.0,286047004.2,P
1504035675.8,286046997.0,P
1504035695.7,286046998.4,N
1504035715.5,286046998.1,N
1504035735.3,286046999.5,N
1504035755.2,286046996.6,N
1504035775.9,286046997.1,N
1504035795.7,286046999.0,N
1504035815.6,286046996.9,N
1504035835.4,286046999.3,N
1504035855.2,286047000.7,N
1504035875.0,286047000.5,N
1504035875.9,286047000.5,N
1504035895.8,286047000.1,N
1504035915.6,286047002.8,N
1504035935.4,286047000.0,N
1504035955.3,286047001.9,N
1504035975.1,286047003.3,N
1504035976.0,286047003.3,N
1504035995.8,286047004.9,N
1504036015.7,286047007.6,N
1504036035.5,286047005.8,N
1504036055.3,286047003.4,N
1504036075.2,286047003.0,N
1504036095.9,286047006.7,N
1504036115.7,286047006.3,N
1504036135.6,286047006.1,N
1504036155.4,286047010.8,P
1504036175.2,286047006.5,N
1504036195.1,286047008.5,N
1504036196.0,286047008.5,N
1504036215.8,286047009.9,P
1504036235.6,286047001.6,N
1504036255.5,286047001.6,N
1504036275.3,286047002.8,N
1504036295.1,286046998.6,N
1504036315.9,286046998.6,N
1504036335.7,286046999.2,N
1504036355.5,286046999.0,N
1504036375.4,286047001.0,N
1504036395.2,286047001.1,N
1504036415.0,286047000.7,N
1504036415.9,286047000.7,N
1504036435.7,286046998.3,N
1504036455.6,286046998.7,N
1504036475.4,286046998.8,N
1504036495.2,286046997.2,N
1504036515.1,286046995.3,N
1504036516.0,286046995.3,N
1504036535.8,286046997.3,N
1504036555.6,286046994.9,N
1504036575.5,286046999.5,N
1504036595.3,286046996.5,N
1504036615.1,286046998.2,N
1504036635.9,286047002.5,N
1504036655.7,286046999.0,N
1504036675.5,286046998.4,N
1504036695.4,286046996.5,N
1504036715.2,286047001.1,N
1504036735.0,286047002.0,N
1504036735.9,286047002.0,N
1504036755.7,286047001.8,N
1504036775.6,286047000.1,N
1504036795.4,286047000.6,N
